STARLINK-1629, 46150

Orbit data source: Space-Track

STARLINK-1629, 46150 is a payload satellite owned by SpaceX/Seattle (US) in LEO that was launched on Tue, 18 Aug 2020 UTC via an FALCON 9 launch vehicle from the Air Force Eastern Test Range (AFETR). Payload-class satellites include a variety of spacecraft equipped with specific instruments for various scientific and technological missions. These include communications satellites like Starlink; space stations such as the ISS; scientific satellites like the Hubble; Earth observation satellites from companies like Planet Labs, Umbra, and HawkEye 360; GPS; miniature CubeSats for education and research; and military/defense satellites.

Loading next visibility...
Identifier
46150, 2020-057AK
Orbit
LEO
Country
Flag of USUS
Related business
Manufacturer
SpaceX/Seattle
Mission
Partially operational Commercial Communications
Bus & Motor
STARLINK, Unknown motor
Mass
260 kg wet, ~248 kg dry
Launch date (UTC)
2020-08-18 (5 years ago)
Launch vehicle
FALCON 9
Launch site
Air Force Eastern Test Range (AFETR)
Object type
Payload
Rocket body
Debris
Shape & HBR
Box + 1 Pan, 10.1 m
Radar Cross Section
13.562 m², Large (>1 m²)

Expand to show TLE details & history
Last TLE update: 20 hours ago

TLE from 20 hours ago
0 STARLINK-1629
1 46150U 20057AK  25305.66668981  .00125172  00000-0  21652-2 0  9991
2 46150  53.0313 136.5544 0013836 142.8080 233.1788 15.49954657  5951
Epoch: 2025-11-01T16:00Z
TLE epoch observation values (Epoch: 2025-11-01T16:00:01.999Z)
Latitude
12.61077°
Longitude
-135.00731°
Altitude
422.631 km
Speed
7.657 km/s
True Right ascension
09h 44m 46s
True Declination
12° 32' 03"
Sunlit
Object was in daylight at epoch
Visualization orbit readout
Latitude
Unknown
Longitude
Unknown
Altitude
Unknown
Speed
Unknown
Apparent Right ascension
Unknown
Apparent Declination
Unknown
Sunlit
N/A
Visualization observer readout
Local Sidereal Time
07:21:06
Azimuth
Unknown
Elevation
Unknown
Doppler factor
Unknown
Orbital elements
Apogee altitude
426.54 km
Perigee altitude
407.736 km
Semi-major axis
6,795.275 km
Eccentricity
0.00138
Inclination
53.0313°
RAAN
136.5544°
Arg. of periapsis
142.808°
True anomaly
233.05201°
Mean anomaly
233.1788°
Eccentric anomaly
233.11539°
Mean motion
3.87465 °/min
Orbital period
92.91 mins
BSTAR
0.0021652
Loading maneuver chart data...
Computing Atmospheric mass density...

Documentation

Showing up to 5 results
|